Location: Kershaw
(34.5481°N, 80.5823°W)
Time: 00:52:43
(UTC+00:00)

Altair - Pass Details

Date: 08 October 2022
Orbit: 1501 x 1682 km, 47.2° (Epoch: 05 December)

Event Time Altitude Azimuth Distance (km) Brightness Sun altitude
Exits shadow 08:28:50 85° 208° (SSW) 1,600 7.3 -36.0°
Maximum altitude 08:29:09 88° 143° (SE) 1,597 7.4 -36.0°
Drops below altitude 10° 08:39:05 10° 55° (NE) 3,879 10.4 -34.0°
Sets 08:42:16 0° 55° (NE) 4,888 11.1 -33.4°
